Simultaneous Nadir Overpasses (SNOs) Predictions

Prediction of SNOs between GOES-15 and LANDSAT-8 Satellite Orbit:

Table of predicted SNOs for the next 14.0 days since TLE Epoch: 1/23/2021
Index Date Time (GOES-15) GOES-15 Lat,Lon LANDSAT-8 Lat,Lon Distance(km) Time Diff (sec)
1 01/23/2021 06:42:33 -0.01,-127.83 0.12,-127.18 73.91 80
2 01/25/2021 06:30:22 -0.02,-127.77 0.77,-124.23 403.27 80
3 01/25/2021 18:48:58 -0.02,-127.79 0.30,-129.39 182.10 80
4 01/27/2021 18:39:26 -0.02,-127.72 -0.29,-126.43 146.35 80
5 01/28/2021 06:58:11 0.06,-127.66 -0.76,-131.63 451.10 80
6 01/29/2021 18:27:14 -0.01,-127.64 -0.88,-123.47 474.49 80
7 01/30/2021 06:45:59 0.05,-127.59 -0.17,-128.67 123.00 80
8 02/01/2021 06:36:27 0.04,-127.51 0.43,-125.71 204.69 80
9 02/01/2021 18:55:03 -0.08,-127.53 0.64,-130.87 380.55 80
10 02/03/2021 18:42:51 -0.07,-127.44 0.03,-127.91 53.42 80
11 02/05/2021 18:33:19 -0.07,-127.35 -0.57,-124.95 272.87 80
